Terminal Aerodrome Forecast
Issued by NWS Omaha/Valley, NE

Home | Current Version | Previous Version | Text Only | Print | Product List | Glossary Off
Versions: 1 2 3 4 5 6 7 8 9 10 11 12 13 14 15 16 17 18 19 20 21 22 23 24 25 26 27 28

325
FTUS43 KOAX 241724
TAFOFK
TAF
KOFK 241724Z 2418/2518 02005KT P6SM BKN050
     FM250000 15005KT P6SM SCT045
     FM250600 15008KT P6SM BKN250
     FM251300 17012KT P6SM SCT200=

USA.gov is the U.S. government's official web portal to all federal, state and local government web resources and services.